C6603 KACV-KACV

Flight info

Callsign C6603
Flight time 0h 1m
Altitude 1000
Route VFR
Aircraft AS65/L-VGD/C

Departure

Time 2026-04-28 01:35
Airport California Redwood Coast-Humboldt County Airport (KACV)

Arrival

Time 2026-04-28 01:36
Airport California Redwood Coast-Humboldt County Airport (KACV)
Time Latitude Longitude Altitude Speed Heading
2026-04-28 01:27 40.97651 -124.11268 204 ft 0 kts 114°
2026-04-28 01:30 40.97652 -124.11268 204 ft 0 kts 114°
2026-04-28 01:30 40.97651 -124.11268 204 ft 0 kts 114°
2026-04-28 01:32 40.97650 -124.11266 205 ft 2 kts 92°
2026-04-28 01:32 40.97634 -124.11254 201 ft 5 kts 174°
2026-04-28 01:32 40.97622 -124.11253 201 ft 2 kts 178°
2026-04-28 01:32 40.97602 -124.11205 199 ft 8 kts 106°
2026-04-28 01:33 40.97591 -124.11147 199 ft 5 kts 102°
2026-04-28 01:33 40.97583 -124.11095 203 ft 5 kts 101°
2026-04-28 01:33 40.97578 -124.11053 201 ft 4 kts 78°
2026-04-28 01:33 40.97618 -124.11016 202 ft 8 kts 32°
2026-04-28 01:34 40.97685 -124.10974 236 ft 25 kts 31°
2026-04-28 01:34 40.97909 -124.10802 404 ft 46 kts 28°
2026-04-28 01:34 40.98215 -124.10571 632 ft 57 kts 43°
2026-04-28 01:34 40.98336 -124.10019 727 ft 73 kts 114°
2026-04-28 01:35 40.98021 -124.09624 833 ft 64 kts 188°
2026-04-28 01:35 40.97598 -124.09859 790 ft 74 kts 234°
2026-04-28 01:35 40.97194 -124.10313 724 ft 79 kts 225°
2026-04-28 01:35 40.96770 -124.10703 698 ft 64 kts 229°
2026-04-28 01:36 40.96671 -124.11108 658 ft 44 kts 308°
2026-04-28 01:36 40.96903 -124.11371 549 ft 47 kts
2026-04-28 01:36 40.97199 -124.11344 433 ft 37 kts 45°
2026-04-28 01:36 40.97416 -124.11196 287 ft 33 kts 49°
2026-04-28 01:37 40.97524 -124.11091 204 ft 1 kts 43°
2026-04-28 01:37 40.97529 -124.11086 200 ft 2 kts 43°
2026-04-28 01:37 40.97532 -124.11084 206 ft 0 kts 42°
2026-04-28 01:40 40.97532 -124.11083 206 ft 1 kts 42°
2026-04-28 01:41 40.97548 -124.11072 208 ft 3 kts 37°
2026-04-28 01:41 40.97580 -124.11055 216 ft 10 kts 47°
2026-04-28 01:41 40.97711 -124.10957 278 ft 35 kts 45°
2026-04-28 01:41 40.97916 -124.10805 336 ft 27 kts 39°
2026-04-28 01:42 40.98021 -124.10713 279 ft 9 kts 39°
2026-04-28 01:42 40.98038 -124.10702 230 ft 1 kts 46°
2026-04-28 01:42 40.98037 -124.10702 215 ft 3 kts 46°
2026-04-28 01:42 40.98047 -124.10692 211 ft 0 kts 41°
2026-04-28 01:43 40.98057 -124.10686 222 ft 4 kts 27°
2026-04-28 01:43 40.98095 -124.10653 238 ft 8 kts 26°
2026-04-28 01:43 40.98142 -124.10619 255 ft 6 kts 38°
2026-04-28 01:44 40.98204 -124.10592 283 ft 12 kts 43°
2026-04-28 01:44 40.98233 -124.10565 268 ft 4 kts 41°
2026-04-28 01:44 40.98238 -124.10551 236 ft 1 kts 32°
2026-04-28 01:44 40.98247 -124.10542 230 ft 1 kts 34°
2026-04-28 01:45 40.98249 -124.10540 224 ft 1 kts 37°
2026-04-28 01:45 40.98249 -124.10542 221 ft 0 kts 41°
2026-04-28 01:45 40.98249 -124.10539 223 ft 2 kts 38°
2026-04-28 01:45 40.98271 -124.10511 309 ft 10 kts 22°
2026-04-28 01:46 40.98438 -124.10443 430 ft 50 kts
2026-04-28 01:46 40.98686 -124.09892 545 ft 95 kts 90°
2026-04-28 01:46 40.98292 -124.09141 681 ft 112 kts 162°
2026-04-28 01:46 40.97497 -124.09105 737 ft 118 kts 205°
2026-04-28 01:47 40.96684 -124.09363 800 ft 124 kts 207°
2026-04-28 01:47 40.95817 -124.09584 778 ft 131 kts 199°
2026-04-28 01:47 40.94921 -124.09676 786 ft 127 kts 195°
2026-04-28 01:47 40.94060 -124.09683 808 ft 123 kts 189°
2026-04-28 01:48 40.93217 -124.09461 789 ft 127 kts 171°
2026-04-28 01:48 40.92401 -124.09022 804 ft 125 kts 170°
2026-04-28 01:48 40.91610 -124.08597 840 ft 117 kts 171°
2026-04-28 01:48 40.90872 -124.08233 872 ft 110 kts 171°
2026-04-28 01:49 40.90139 -124.07908 779 ft 114 kts 173°
2026-04-28 01:49 40.89407 -124.07652 773 ft 102 kts 189°
2026-04-28 01:49 40.88812 -124.07801 812 ft 77 kts 234°
2026-04-28 01:49 40.88546 -124.08302 788 ft 60 kts 282°
2026-04-28 01:50 40.88604 -124.08818 738 ft 60 kts 316°
2026-04-28 01:50 40.88925 -124.09123 648 ft 56 kts
2026-04-28 01:50 40.89314 -124.09191 436 ft 55 kts 350°
2026-04-28 01:50 40.89619 -124.09280 345 ft 39 kts 332°
2026-04-28 01:51 40.89819 -124.09384 334 ft 25 kts 355°
2026-04-28 01:51 40.89962 -124.09160 353 ft 40 kts 71°
2026-04-28 01:51 40.89924 -124.08865 303 ft 32 kts 91°
2026-04-28 01:51 40.89743 -124.08733 294 ft 24 kts 155°
2026-04-28 01:52 40.89631 -124.08643 289 ft 17 kts 225°
2026-04-28 01:52 40.89426 -124.08631 330 ft 36 kts 255°
2026-04-28 01:52 40.89210 -124.08861 441 ft 37 kts 278°
2026-04-28 01:52 40.89236 -124.09077 449 ft 15 kts 348°
2026-04-28 01:53 40.89313 -124.09059 355 ft 18 kts 358°
2026-04-28 01:53 40.89400 -124.09031 331 ft 7 kts
2026-04-28 01:53 40.89436 -124.09037 229 ft 9 kts 20°
2026-04-28 01:53 40.89457 -124.09063 178 ft 4 kts 25°
2026-04-28 01:54 40.89485 -124.09040 93 ft 1 kts 22°
2026-04-28 01:54 40.89492 -124.09036 52 ft 1 kts 10°
2026-04-28 01:54 40.89496 -124.09035 37 ft 1 kts
2026-04-28 01:54 40.89499 -124.09036 37 ft 0 kts 331°
2026-04-28 01:55 40.89499 -124.09035 40 ft 2 kts 333°
2026-04-28 01:55 40.89677 -124.09049 421 ft 50 kts 355°
2026-04-28 01:55 40.90200 -124.09159 637 ft 98 kts 356°
2026-04-28 01:56 40.90961 -124.09378 704 ft 124 kts 353°
2026-04-28 01:56 40.91838 -124.09695 795 ft 136 kts 352°
2026-04-28 01:56 40.92789 -124.10050 787 ft 146 kts 351°
2026-04-28 01:56 40.93768 -124.10419 810 ft 145 kts 352°
2026-04-28 01:57 40.94721 -124.10774 810 ft 139 kts 355°
2026-04-28 01:57 40.95614 -124.11020 789 ft 121 kts
2026-04-28 01:57 40.96359 -124.11151 748 ft 88 kts
2026-04-28 01:57 40.96804 -124.11201 652 ft 41 kts 19°
2026-04-28 01:58 40.97010 -124.11213 505 ft 23 kts
2026-04-28 01:58 40.97141 -124.11227 427 ft 20 kts 16°
2026-04-28 01:58 40.97312 -124.11202 335 ft 29 kts 26°
2026-04-28 01:58 40.97467 -124.11127 250 ft 16 kts 36°
2026-04-28 01:59 40.97501 -124.11101 201 ft 1 kts 56°
2026-04-28 01:59 40.97534 -124.11091 201 ft 3 kts 78°
2026-04-28 01:59 40.97539 -124.11090 203 ft 0 kts 72°
2026-04-28 01:59 40.97545 -124.11080 206 ft 1 kts 14°
2026-04-28 02:00 40.97572 -124.11080 208 ft 7 kts 329°
2026-04-28 02:00 40.97591 -124.11151 203 ft 9 kts 281°
2026-04-28 02:00 40.97601 -124.11221 199 ft 7 kts 287°
2026-04-28 02:01 40.97631 -124.11242 199 ft 4 kts 358°
2026-04-28 02:01 40.97646 -124.11260 203 ft 2 kts 298°
2026-04-28 02:01 40.97652 -124.11267 203 ft 0 kts 344°